Powrót do katalogu

STARLINK-37283

AktywnyŁącznośćVLEO
NORAD 68568·PAYLOAD·🇺🇸 United States

Wystrzelony Apr 2, 2026 z Cape Canaveral Space Force Station

Loading…

Następne Przeloty (najbliższe 24 godziny)

TLE

ŚwieżeSource: CelesTrak SupGP

Epoka: Sep 14, 2026, 21:25 UTC

1 68568C 26070AC  26257.89284722  .00015313  00000+0  45253-3 0  2573
2 68568  53.1591 200.2572 0001519  91.4072 205.9598 15.34375780    18

Śledź STARLINK-37283 w czasie rzeczywistym z AllMySat

Download on the App Store